Weather History for KBIE - July, 2013

Change the Weather History Date:

Monday, July 29, 2013

  Actual Average Record
Temperature  
Mean Temperature 65 °F -  
Max Temperature 69 °F 89 °F 104 °F (1980)
Min Temperature 61 °F 65 °F 54 °F (2014)
Growing Degree Days 15 (Base 50)    
Moisture  
Dew Point 64 °F    
Average Humidity 95    
Maximum Humidity 100    
Minimum Humidity 69    
Precipitation  
Precipitation 2.17 in - - ()
Sea Level Pressure  
Sea Level Pressure 30.03 in    
Wind  
Wind Speed 6 mph (ESE)    
Max Wind Speed 13 mph    
Max Gust Speed 20 mph    
Visibility 7 miles    
Events Rain    
Averages and records for this station are not official NWS values.
T = Trace of Precipitation, MM = Missing Value Source: NWS Daily Summary

Daily Weather History Graph

Daily Weather History Graph

Search for Another Location

Airport or City:

Trip Planner

Search our weather history database for the weather conditions in past years. The results will help you decide how hot, cold, wet, or windy it might be!

Date:

Astronomy

Jul. 29, 2013 Rise Set
Actual Time 6:22 AM CDT 8:44 PM CDT
Civil Twilight 5:51 AM CDT 9:14 PM CDT
Nautical Twilight 5:13 AM CDT 9:52 PM CDT
Astronomical Twilight 4:31 AM CDT 10:34 PM CDT
Moon 12:06 AM CDT (7/29) 2:06 PM CDT (7/29)
Length of Visible Light 15h 23m
Length of Day
14h 22m
Waning Gibbous, 50% of the Moon is Illuminated
Jul 29
Waning Gibbous
Jul 29
Last Quarter
Aug 6
New
Aug 14
First Quarter
Aug 20
Full

Hourly Weather History & Observations

Time (CDT) Temp. Dew Point Humidity Pressure Visibility Wind Dir Wind Speed Gust Speed Precip Events Conditions
12:15 AM 66.6 °F 56.1 °F 69% 30.05 in 10.0 mi SE 4.6 mph - N/A   Clear
12:35 AM 66.4 °F 56.7 °F 71% 30.05 in 10.0 mi ESE 5.8 mph - N/A   Clear
12:55 AM 66.2 °F 56.7 °F 71% 30.06 in 10.0 mi SSE 4.6 mph - N/A   Clear
1:15 AM 65.5 °F 56.7 °F 73% 30.06 in 10.0 mi South 5.8 mph - N/A   Clear
1:35 AM 65.3 °F 57.2 °F 75% 30.06 in 10.0 mi SSE 3.5 mph - N/A   Scattered Clouds
1:55 AM 65.3 °F 58.1 °F 77% 30.06 in 10.0 mi SE 4.6 mph - N/A   Mostly Cloudy
2:15 AM 64.8 °F 58.8 °F 81% 30.05 in 10.0 mi East 4.6 mph - N/A   Overcast
2:55 AM 64.6 °F 59.5 °F 84% 30.04 in 10.0 mi SE 3.5 mph - N/A   Overcast
3:15 AM 64.6 °F 59.5 °F 84% 30.04 in 10.0 mi ESE 3.5 mph - N/A   Overcast
3:55 AM 64.4 °F 60.3 °F 86% 30.04 in 10.0 mi ESE 3.5 mph - N/A   Overcast
4:15 AM 64.0 °F 61.7 °F 92% 30.04 in 7.0 mi SE 5.8 mph - 0.01 in Rain Light Rain
4:55 AM 62.6 °F 62.2 °F 99% 30.04 in 5.0 mi SE 4.6 mph - 0.14 in Rain Rain
5:15 AM 62.6 °F 62.4 °F 99% 30.04 in 4.0 mi ESE 3.5 mph - 0.05 in Rain Heavy Rain
5:35 AM 62.6 °F 62.6 °F 100% 30.04 in 3.0 mi East 3.5 mph - 0.18 in Rain Rain
5:55 AM 62.8 °F 62.8 °F 100% 30.04 in 7.0 mi East 4.6 mph - 0.21 in Rain Light Rain
6:15 AM 63.0 °F 63.0 °F 100% 30.04 in 5.0 mi ESE 3.5 mph - 0.02 in Rain Rain
6:35 AM 63.1 °F 63.1 °F 100% 30.05 in 3.0 mi Calm Calm - 0.08 in Rain Heavy Rain
6:55 AM 63.5 °F 63.5 °F 100% 30.04 in 4.0 mi ESE 3.5 mph - 0.16 in Rain Rain
7:15 AM 63.7 °F 63.7 °F 100% 30.04 in 1.8 mi SE 6.9 mph - 0.12 in Rain Heavy Rain
7:35 AM 63.7 °F 63.7 °F 100% 30.04 in 3.0 mi SE 8.1 mph - 0.27 in Rain Rain
7:55 AM 63.5 °F 63.5 °F 100% 30.03 in 3.0 mi ESE 11.5 mph - 0.36 in Rain Rain
8:15 AM 63.0 °F 63.0 °F 100% 30.04 in 1.8 mi SE 10.4 mph - 0.16 in Rain Heavy Rain
8:35 AM 62.6 °F 62.6 °F 100% 30.04 in 2.5 mi SE 12.7 mph - 0.29 in Rain Rain
8:55 AM 62.1 °F 62.1 °F 100% 30.03 in 2.0 mi SE 12.7 mph 19.6 mph 0.42 in Rain Rain
9:15 AM 61.7 °F 61.7 °F 100% 30.04 in 1.8 mi SE 11.5 mph 16.1 mph 0.12 in Rain Heavy Rain
9:35 AM 61.7 °F 61.7 °F 100% 30.04 in 1.8 mi ESE 5.8 mph - 0.25 in Rain Heavy Rain
9:55 AM 61.7 °F 61.7 °F 100% 30.03 in 1.0 mi ESE 9.2 mph 16.1 mph 0.58 in Rain Heavy Rain
10:15 AM 62.2 °F 62.2 °F 100% 30.04 in 5.0 mi SE 9.2 mph - 0.04 in Rain Light Rain
10:35 AM 62.6 °F 62.6 °F 100% 30.04 in 3.0 mi SSE 8.1 mph - 0.06 in Rain Rain
10:55 AM 63.0 °F 63.0 °F 100% 30.04 in 3.0 mi SE 9.2 mph - 0.08 in   Drizzle
11:15 AM 63.0 °F 63.0 °F 100% 30.04 in 2.0 mi SE 9.2 mph - 0.02 in   Drizzle
11:35 AM 63.0 °F 63.0 °F 100% 30.04 in 2.0 mi SE 8.1 mph - 0.09 in Rain Rain
11:55 AM 63.1 °F 63.1 °F 100% 30.03 in 2.5 mi SE 8.1 mph - 0.14 in Rain Rain
12:15 PM 63.3 °F 63.3 °F 100% 30.03 in 2.5 mi ESE 8.1 mph - 0.01 in   Light Drizzle
12:35 PM 63.5 °F 63.5 °F 100% 30.03 in 2.0 mi SE 6.9 mph - 0.05 in Rain Rain
12:55 PM 63.5 °F 63.5 °F 100% 30.03 in 5.0 mi SE 9.2 mph - 0.08 in   Light Drizzle
1:15 PM 63.9 °F 63.9 °F 100% 30.03 in 10.0 mi SE 9.2 mph - N/A   Overcast
1:35 PM 64.2 °F 64.2 °F 100% 30.03 in 7.0 mi ESE 8.1 mph - N/A   Light Drizzle
1:55 PM 64.6 °F 64.6 °F 100% 30.02 in 10.0 mi ESE 8.1 mph - N/A   Overcast
2:15 PM 64.9 °F 64.9 °F 100% 30.02 in 10.0 mi ESE 9.2 mph - N/A   Overcast
2:35 PM 65.3 °F 65.3 °F 100% 30.02 in 10.0 mi ESE 5.8 mph - N/A   Overcast
2:55 PM 66.2 °F 65.8 °F 99% 30.02 in 10.0 mi SE 10.4 mph - N/A   Overcast
3:15 PM 66.6 °F 66.2 °F 99% 30.02 in 10.0 mi ESE 9.2 mph - N/A   Overcast
3:35 PM 66.7 °F 66.0 °F 98% 30.02 in 10.0 mi ESE 8.1 mph - N/A   Overcast
3:55 PM 67.6 °F 66.6 °F 96% 30.01 in 10.0 mi SE 8.1 mph - N/A   Overcast
4:15 PM 68.5 °F 66.7 °F 94% 30.01 in 10.0 mi ESE 5.8 mph - N/A   Overcast
4:35 PM 68.4 °F 66.7 °F 95% 30.01 in 10.0 mi ESE 9.2 mph - N/A   Overcast
4:55 PM 68.7 °F 66.7 °F 93% 30.00 in 10.0 mi ESE 9.2 mph - N/A   Overcast
5:15 PM 69.8 °F 67.1 °F 91% 30.00 in 10.0 mi SE 11.5 mph - N/A   Overcast
5:35 PM 69.6 °F 67.1 °F 92% 29.99 in 10.0 mi ESE 6.9 mph - N/A   Overcast
5:55 PM 69.8 °F 67.1 °F 91% 30.00 in 10.0 mi ESE 9.2 mph - N/A   Overcast
6:15 PM 69.3 °F 66.9 °F 92% 29.99 in 10.0 mi SE 6.9 mph - N/A   Overcast
6:35 PM 68.9 °F 66.7 °F 93% 29.99 in 10.0 mi ESE 8.1 mph - N/A   Overcast
6:55 PM 68.0 °F 67.1 °F 97% 30.00 in 5.0 mi ESE 6.9 mph - N/A   Light Drizzle
7:15 PM 67.6 °F 67.1 °F 98% 30.00 in 10.0 mi ESE 6.9 mph - N/A   Overcast
7:35 PM 67.5 °F 67.1 °F 99% 30.00 in 7.0 mi East 5.8 mph - N/A   Overcast
7:55 PM 67.5 °F 67.3 °F 99% 30.01 in 10.0 mi East 6.9 mph - N/A   Overcast
8:15 PM 67.3 °F 67.1 °F 99% 30.01 in 10.0 mi East 4.6 mph - N/A   Overcast
8:35 PM 67.5 °F 67.1 °F 99% 30.01 in 10.0 mi East 4.6 mph - N/A   Overcast
8:55 PM 67.1 °F 67.1 °F 100% 30.01 in 10.0 mi ESE 4.6 mph - N/A   Overcast
9:15 PM 67.1 °F 67.1 °F 100% 30.01 in 10.0 mi ESE 4.6 mph - N/A   Overcast
9:35 PM 67.1 °F 67.1 °F 100% 30.02 in 10.0 mi ESE 4.6 mph - N/A   Overcast
9:55 PM 67.1 °F 67.1 °F 100% 30.02 in 5.0 mi ESE 4.6 mph - N/A   Overcast
10:15 PM 67.1 °F 67.1 °F 100% 30.02 in 10.0 mi Calm Calm - N/A   Overcast
10:35 PM 67.1 °F 67.1 °F 100% 30.02 in 10.0 mi ENE 3.5 mph - N/A   Overcast
10:55 PM 67.1 °F 67.1 °F 100% 30.03 in 10.0 mi East 3.5 mph - N/A   Overcast
11:15 PM 67.1 °F 67.1 °F 100% 30.03 in 7.0 mi NE 3.5 mph - N/A   Overcast
11:35 PM 67.1 °F 67.1 °F 100% 30.03 in 4.0 mi NE 4.6 mph - N/A   Overcast
11:55 PM 67.1 °F 67.1 °F 100% 30.03 in 1.0 mi ENE 5.8 mph - N/A   Overcast